Location: Hopville
(44.8032°N, 123.1329°W)
Time: 04:51:06
(UTC+00:00)

MOS 1 Rocket - Pass Details

Date: 24 January 2021
Orbit: 614 x 830 km, 97.4° (Epoch: 26 February)

Event Time Altitude Azimuth Distance (km) Brightness Sun altitude
Rises 13:17:27 0° 157° (SSE) 3,202 7.0 -25.1°
Reaches altitude 10° 13:19:49 10° 154° (SSE) 2,249 6.2 -24.7°
Maximum altitude 13:24:41 63° 75° (ENE) 791 3.7 -23.8°
Drops below altitude 10° 13:29:18 10° 354° (N) 2,128 5.7 -23.0°
Enters shadow 13:29:38 - 354° (N) 2,262 5.8 -22.9°
